Location: Bakhuizen
(52.8696°N, 5.4575°E)
Time: 02:58:31
(UTC+00:00)

Cosmos 1733 Rocket - Pass Details

Date: 11 May 2021
Orbit: 603 x 628 km, 82.5° (Epoch: 14 June)

Event Time Altitude Azimuth Distance (km) Brightness Sun altitude
Rises 22:57:00 0° 342° (NNW) 2,875 8.1 -18.5°
Reaches altitude 10° 22:59:23 10° 333° (NNW) 1,964 6.7 -18.6°
Maximum altitude 23:03:17 34° 269° (W) 1,015 4.2 -18.7°
Enters shadow 23:04:55 25° 228° (SW) 1,235 4.3 -18.7°
